This is the latest recevied weather packets stored in our database for station/object KD7AWQ. If no packets are shown the sender has not sent any weather packets the latest 10 day(s).
| Time | Temp. | Humidity | Pressure | Rain* | Wind** | Luminosity | Snow |
|---|---|---|---|---|---|---|---|
| 1788137889 | 90° F | 34% | 888.6 mmHg | 0 in | - | 47 W/m² | - |
| 1788137584 | 90° F | 32% | 888.7 mmHg | 0 in | - | 90 W/m² | - |
| 1788137278 | 90° F | 32% | 888.6 mmHg | 0 in | - | 113 W/m² | - |
| 1788136974 | 91° F | 32% | 888.6 mmHg | 0 in | - | 129 W/m² | - |
| 1788136669 | 91° F | 31% | 888.8 mmHg | 0 in | - | 145 W/m² | - |
| 1788136366 | 91° F | 31% | 888.6 mmHg | 0 in | - | 165 W/m² | - |
| 1788136065 | 90° F | 32% | 888.8 mmHg | 0 in | - | 184 W/m² | - |
| 1788135759 | 91° F | 31% | 888.6 mmHg | 0 in | - | 203 W/m² | - |
| 1788135455 | 91° F | 30% | 888.6 mmHg | 0 in | - | 221 W/m² | - |
| 1788135150 | 91° F | 31% | 888.8 mmHg | 0 in | - | 250 W/m² | - |
| 1788134847 | 91° F | 31% | 888.6 mmHg | 0 in | - | 273 W/m² | - |
| 1788134542 | 91° F | 30% | 888.8 mmHg | 0 in | - | 295 W/m² | - |
| 1788134241 | 91° F | 30% | 888.8 mmHg | 0 in | - | 322 W/m² | - |
| 1788133936 | 92° F | 30% | 888.7 mmHg | 0 in | - | 340 W/m² | - |
| 1788133631 | 93° F | 28% | 888.8 mmHg | 0 in | - | 362 W/m² | - |
| 1788133327 | 93° F | 28% | 888.8 mmHg | 0 in | - | 383 W/m² | - |
| 1788133022 | 92° F | 28% | 888.8 mmHg | 0 in | - | 405 W/m² | - |
| 1788132717 | 92° F | 28% | 888.8 mmHg | 0 in | - | 425 W/m² | - |
| 1788132413 | 93° F | 27% | 888.7 mmHg | 0 in | - | 455 W/m² | - |
| 1788132109 | 92° F | 28% | 888.8 mmHg | 0 in | - | 490 W/m² | - |
| 1788131805 | 92° F | 27% | 888.7 mmHg | 0 in | - | 514 W/m² | - |
| 1788131504 | 93° F | 26% | 889 mmHg | 0 in | - | 529 W/m² | - |
| 1788131199 | 93° F | 28% | 889 mmHg | 0 in | - | 552 W/m² | - |
| 1788130899 | 91° F | 29% | 888.7 mmHg | 0 in | - | 575 W/m² | - |
| 1788130594 | 91° F | 31% | 889.1 mmHg | 0 in | - | 593 W/m² | - |
* Rain latest hour (hover to see other rain measurements)
** Current wind speed in m/s (hover to see current wind gust speed)